Weather History for Palm Springs, CA

Change the Weather History Date:

Friday, November 11, 2011

  Actual Average Record
Temperature  
Mean Temperature 65 °F 66 °F  
Max Temperature 74 °F 79 °F 96 °F (1933)
Min Temperature 56 °F 54 °F 31 °F (1950)
Degree Days  
Heating Degree Days 0 2  
Month to date heating degree days 50 13  
Since 1 July heating degree days 50 17  
Cooling Degree Days 0 3  
Month to date cooling degree days 13 50  
Year to date cooling degree days 4146 4112  
Growing Degree Days 14 (Base 50)    
Moisture  
Dew Point 30 °F    
Average Humidity 27    
Maximum Humidity 39    
Minimum Humidity 15    
Precipitation  
Precipitation 0.00 in 0.01 in 0.41 in (1972)
Month to date precipitation 0.14 0.14  
Year to date precipitation 2.53 4.47  
Since 1 July precipitation 1.06 1.53  
Snow  
Snow 0.00 in - - ()
Month to date snowfall 0.0  
Year to date snowfall 0.0  
Since 1 July snowfall 0.0  
Snow Depth 0.00 in    
Sea Level Pressure  
Sea Level Pressure 29.92 in    
Wind  
Wind Speed 3 mph (North)    
Max Wind Speed 9 mph    
Max Gust Speed 13 mph    
Visibility 10 miles    
Events      
T = Trace of Precipitation, MM = Missing Value Source: NWS Daily Summary

Daily Weather History Graph

Daily Weather History Graph

Search for Another Location

Airport:

Trip Planner

Search our weather history database for the weather conditions in past years. The results will help you decide how hot, cold, wet, or windy it might be!

Date:

Astronomy

Nov. 11, 2011 Rise Set
Actual Time 6:14 AM PST 4:45 PM PST
Civil Twilight 5:47 AM PST 5:11 PM PST
Nautical Twilight 5:18 AM PST 5:41 PM PST
Astronomical Twilight 4:48 AM PST 6:11 PM PST
Moon 5:22 PM PST (11/11) 7:02 AM PST (11/11)
Length of Visible Light 11h 23m
Length of Day
10h 31m
Full, 99% of the Moon is Illuminated
Nov 11
Full
Nov 18
Last Quarter
Nov 24
New
Dec 2
First Quarter
Dec 10
Full

Hourly Weather History & Observations

Time (PST) Temp. Dew Point Humidity Pressure Visibility Wind Dir Wind Speed Gust Speed Precip Events Conditions
12:53 AM 59.0 °F 30.0 °F 33% 30.01 in 10.0 mi WNW 4.6 mph - N/A   Clear
1:53 AM 59.0 °F 28.9 °F 32% 30.01 in 10.0 mi NW 4.6 mph - N/A   Clear
2:53 AM 57.9 °F 30.0 °F 35% 29.98 in 10.0 mi NNW 5.8 mph - N/A   Clear
3:53 AM 57.2 °F 30.2 °F 36% 29.97 in 10.0 mi NW 4.6 mph - N/A   Clear
4:53 AM 57.9 °F 30.9 °F 36% 29.97 in 10.0 mi NNW 3.5 mph - N/A   Clear
5:53 AM 57.0 °F 32.0 °F 39% 29.98 in 10.0 mi NNW 5.8 mph - N/A   Clear
6:53 AM 59.0 °F 32.0 °F 36% 29.98 in 10.0 mi NNW 3.5 mph - N/A   Overcast
7:53 AM 60.8 °F 30.2 °F 31% 29.99 in 10.0 mi Calm Calm - N/A   Overcast
8:53 AM 63.0 °F 34.0 °F 34% 29.98 in 10.0 mi Calm Calm - N/A   Clear
9:53 AM 64.0 °F 37.0 °F 37% 29.97 in 10.0 mi Calm Calm - N/A   Clear
10:53 AM 69.8 °F 32.0 °F 25% 29.95 in 10.0 mi North 3.5 mph - N/A   Overcast
11:53 AM 70.0 °F 25.0 °F 18% 29.92 in 10.0 mi Calm Calm - N/A   Mostly Cloudy
12:53 PM 72.0 °F 26.1 °F 18% 29.88 in 10.0 mi Calm Calm - N/A   Partly Cloudy
1:53 PM 73.0 °F 23.0 °F 15% 29.87 in 10.0 mi ENE 3.5 mph - N/A   Clear
2:53 PM 73.0 °F 26.1 °F 17% 29.86 in 10.0 mi East 8.1 mph - N/A   Scattered Clouds
3:53 PM 72.0 °F 27.0 °F 19% 29.86 in 10.0 mi East 5.8 mph - N/A   Scattered Clouds
4:53 PM 68.0 °F 30.9 °F 25% 29.85 in 10.0 mi East 4.6 mph - N/A   Clear
5:53 PM 64.0 °F 33.1 °F 31% 29.86 in 10.0 mi Calm Calm - N/A   Clear
6:53 PM 63.0 °F 32.0 °F 31% 29.87 in 10.0 mi NNW 9.2 mph - N/A   Clear
7:53 PM 59.0 °F 28.0 °F 31% 29.87 in 10.0 mi NNW 4.6 mph - N/A   Clear
8:53 PM 55.9 °F 30.9 °F 39% 29.86 in 10.0 mi Calm Calm - N/A   Clear
9:53 PM 55.9 °F 28.9 °F 36% 29.86 in 10.0 mi NNW 4.6 mph - N/A   Clear
10:53 PM 55.9 °F 30.0 °F 37% 29.84 in 10.0 mi NW 4.6 mph - N/A   Scattered Clouds
11:53 PM 55.9 °F 32.0 °F 40% 29.84 in 10.0 mi NNW 5.8 mph - N/A   Mostly Cloudy